| time (UTC) | temp F | wind direction | speed MPH | gust MPH | rain 1hr in | rain 24hr in | rain mn in | humidity % | barometer mb |
| 20260505010517 | 53 | 158 | 8.0 | 15.0 | 0.00 | 0.00 | 0.00 | 37 | 1005.6 |
| 20260505005517 | 54 | 135 | 7.0 | 12.0 | 0.00 | 0.00 | 0.00 | 37 | 1005.3 |
| 20260505004517 | 54 | 135 | 9.0 | 18.0 | 0.00 | 0.00 | 0.00 | 37 | 1005.2 |
| 20260505003517 | 54 | 135 | 7.0 | 15.0 | 0.00 | 0.00 | 0.00 | 37 | 1005.0 |
| 20260505002517 | 55 | 135 | 7.0 | 15.0 | 0.00 | 0.00 | 0.00 | 37 | 1004.9 |
| 20260505001517 | 55 | 135 | 7.0 | 12.0 | 0.00 | 0.00 | 0.00 | 38 | 1004.8 |
| 20260505000517 | 55 | 158 | 9.0 | 17.0 | 0.00 | 0.00 | 0.00 | 37 | 1004.6 |
| 20260504235517 | 56 | 135 | 8.0 | 17.0 | 0.00 | 0.00 | 0.00 | 38 | 1004.7 |
| 20260504234517 | 56 | 135 | 7.0 | 14.0 | 0.00 | 0.00 | 0.00 | 39 | 1004.5 |
| 20260504233537 | 56 | 135 | 9.0 | 15.0 | 0.00 | 0.00 | 0.00 | 38 | 1004.5 |
| 20260504232537 | 57 | 135 | 10.0 | 21.0 | 0.00 | 0.00 | 0.00 | 38 | 1004.3 |
| 20260504231517 | 57 | 135 | 10.0 | 17.0 | 0.00 | 0.00 | 0.00 | 38 | 1004.2 |
| 20260504230537 | 58 | 135 | 12.0 | 20.0 | 0.00 | 0.00 | 0.00 | 38 | 1004.2 |
| 20260504225517 | 58 | 135 | 8.0 | 14.0 | 0.00 | 0.00 | 0.00 | 38 | 1004.0 |
| 20260504224518 | 59 | 135 | 12.0 | 20.0 | 0.00 | 0.00 | 0.00 | 39 | 1003.7 |
| 20260504223517 | 60 | 135 | 12.0 | 19.0 | 0.00 | 0.00 | 0.00 | 38 | 1003.7 |
| 20260504222517 | 61 | 135 | 11.0 | 21.0 | 0.00 | 0.00 | 0.00 | 37 | 1003.4 |
| 20260504221517 | 61 | 135 | 11.0 | 21.0 | 0.00 | 0.00 | 0.00 | 37 | 1003.2 |
| 20260504220518 | 62 | 135 | 8.0 | 16.0 | 0.00 | 0.00 | 0.00 | 36 | 1002.9 |
| 20260504215517 | 63 | 135 | 11.0 | 27.0 | 0.00 | 0.00 | 0.00 | 35 | 1002.8 |
| 20260504214517 | 63 | 135 | 11.0 | 19.0 | 0.00 | 0.00 | 0.00 | 35 | 1002.6 |
| 20260504213517 | 64 | 135 | 11.0 | 20.0 | 0.00 | 0.00 | 0.00 | 34 | 1002.6 |
| 20260504212518 | 63 | 135 | 10.0 | 18.0 | 0.00 | 0.00 | 0.00 | 35 | 1002.4 |
| 20260504211517 | 63 | 135 | 11.0 | 21.0 | 0.00 | 0.00 | 0.00 | 35 | 1002.3 |
| 20260504210517 | 63 | 135 | 10.0 | 19.0 | 0.00 | 0.00 | 0.00 | 35 | 1002.2 |
| 20260504205537 | 63 | 135 | 10.0 | 16.0 | 0.00 | 0.00 | 0.00 | 34 | 1002.3 |
| 20260504204537 | 63 | 135 | 9.0 | 19.0 | 0.00 | 0.00 | 0.00 | 34 | 1002.3 |
| 20260504203517 | 64 | 135 | 9.0 | 14.0 | 0.00 | 0.00 | 0.00 | 34 | 1002.3 |
| 20260504202517 | 64 | 135 | 11.0 | 20.0 | 0.00 | 0.00 | 0.00 | 33 | 1002.3 |
| 20260504201517 | 64 | 135 | 10.0 | 19.0 | 0.00 | 0.00 | 0.00 | 33 | 1002.4 |
| 20260504200517 | 64 | 135 | 10.0 | 22.0 | 0.00 | 0.00 | 0.00 | 34 | 1002.5 |
| 20260504195517 | 64 | 135 | 10.0 | 17.0 | 0.00 | 0.00 | 0.00 | 35 | 1002.4 |
| 20260504194517 | 64 | 135 | 12.0 | 23.0 | 0.00 | 0.00 | 0.00 | 33 | 1002.2 |
| 20260504193517 | 65 | 135 | 13.0 | 20.0 | 0.00 | 0.00 | 0.00 | 32 | 1002.3 |
| 20260504192517 | 65 | 135 | 11.0 | 22.0 | 0.00 | 0.00 | 0.00 | 28 | 1002.0 |
| 20260504191517 | 65 | 135 | 12.0 | 19.0 | 0.00 | 0.00 | 0.00 | 28 | 1001.9 |
| 20260504190517 | 65 | 135 | 9.0 | 19.0 | 0.00 | 0.00 | 0.00 | 30 | 1001.5 |
| 20260504185557 | 65 | 135 | 12.0 | 18.0 | 0.00 | 0.00 | 0.00 | 30 | 1001.4 |
| 20260504184517 | 66 | 135 | 10.0 | 18.0 | 0.00 | 0.00 | 0.00 | 31 | 1001.4 |
| 20260504183516 | 66 | 135 | 12.0 | 20.0 | 0.00 | 0.00 | 0.00 | 29 | 1001.3 |
| 20260504182516 | 67 | 135 | 12.0 | 21.0 | 0.00 | 0.00 | 0.00 | 32 | 1001.5 |
| 20260504181517 | 67 | 135 | 10.0 | 20.0 | 0.00 | 0.00 | 0.00 | 34 | 1001.3 |
| 20260504180516 | 66 | 135 | 11.0 | 19.0 | 0.00 | 0.00 | 0.00 | 35 | 1001.1 |
| 20260504175516 | 66 | 135 | 11.0 | 17.0 | 0.00 | 0.00 | 0.00 | 35 | 1000.9 |
| 20260504174516 | 66 | 135 | 9.0 | 17.0 | 0.00 | 0.00 | 0.00 | 36 | 1001.0 |
| 20260504173537 | 67 | 135 | 11.0 | 19.0 | 0.00 | 0.00 | 0.00 | 34 | 1000.8 |
| 20260504172517 | 67 | 135 | 10.0 | 17.0 | 0.00 | 0.00 | 0.00 | 37 | 1000.9 |
| 20260504171517 | 67 | 135 | 8.0 | 22.0 | 0.00 | 0.00 | 0.00 | 37 | 1000.7 |
| 20260504170537 | 67 | 135 | 7.0 | 19.0 | 0.00 | 0.00 | 0.00 | 36 | 1000.7 |
| 20260504150517 | 61 | 135 | 9.0 | 15.0 | 0.00 | 0.00 | 0.00 | 40 | 999.8 |
| 20260504140517 | 62 | 135 | 8.0 | 18.0 | 0.00 | 0.00 | 0.00 | 43 | 999.7 |
| 20260504130516 | 61 | 135 | 8.0 | 12.0 | 0.00 | 0.00 | 0.00 | 49 | 999.4 |
| 20260504110516 | 56 | 113 | 6.0 | 9.0 | 0.00 | 0.00 | 0.00 | 54 | 997.3 |
| 20260504100517 | 53 | 113 | 6.0 | 11.0 | 0.00 | 0.00 | 0.00 | 57 | 998.1 |
| 20260504081516 | 53 | 90 | 4.0 | 10.0 | 0.00 | 0.00 | 0.00 | 57 | 999.7 |
| 20260504080536 | 53 | 90 | 5.0 | 9.0 | 0.00 | 0.00 | 0.00 | 57 | 999.8 |
| 20260504050516 | 55 | 0.0 | 0.0 | 0.00 | 0.00 | 0.00 | 50 | 1002.5 | |
| 20260504045516 | 55 | 0.0 | 0.0 | 0.00 | 0.00 | 0.00 | 48 | 1002.7 | |
| 20260504044516 | 54 | 0.0 | 0.0 | 0.00 | 0.00 | 0.00 | 50 | 1002.8 | |
| 20260504043516 | 54 | 0.0 | 0.0 | 0.00 | 0.00 | 0.00 | 53 | 1002.8 | |
| 20260504042516 | 54 | 0.0 | 0.0 | 0.00 | 0.00 | 0.00 | 56 | 1003.1 | |
| 20260504041516 | 55 | 0.0 | 0.0 | 0.00 | 0.00 | 0.00 | 56 | 1003.2 | |
| 20260504040516 | 55 | 0.0 | 0.0 | 0.00 | 0.00 | 0.00 | 57 | 1003.4 | |
| 20260504035516 | 55 | 0.0 | 0.0 | 0.00 | 0.00 | 0.00 | 55 | 1003.3 | |
| 20260504034516 | 56 | 0.0 | 0.0 | 0.00 | 0.00 | 0.00 | 54 | 1003.6 | |
| 20260504033516 | 56 | 0.0 | 0.0 | 0.00 | 0.00 | 0.00 | 55 | 1003.7 | |
| 20260504032516 | 57 | 0.0 | 0.0 | 0.00 | 0.00 | 0.00 | 54 | 1003.9 | |
| 20260504031516 | 58 | 0.0 | 0.0 | 0.00 | 0.00 | 0.00 | 53 | 1004.1 | |
| 20260504030536 | 58 | 0.0 | 0.0 | 0.00 | 0.00 | 0.00 | 51 | 1004.1 | |
| 20260504025536 | 59 | 0.0 | 0.0 | 0.00 | 0.00 | 0.00 | 49 | 1004.2 | |
| 20260504024516 | 60 | 0.0 | 0.0 | 0.00 | 0.00 | 0.00 | 47 | 1004.2 | |
| 20260504023516 | 61 | 0.0 | 0.0 | 0.00 | 0.00 | 0.00 | 46 | 1004.2 | |
| 20260504022516 | 62 | 0.0 | 0.0 | 0.00 | 0.00 | 0.00 | 44 | 1004.2 | |
| 20260504021556 | 63 | 0.0 | 0.0 | 0.00 | 0.00 | 0.00 | 43 | 1004.4 | |
| 20260504020516 | 64 | 0.0 | 1.0 | 0.00 | 0.00 | 0.00 | 41 | 1004.3 | |
| 20260504015516 | 65 | 0.0 | 0.0 | 0.00 | 0.00 | 0.00 | 39 | 1004.3 | |
| 20260504014516 | 66 | 0.0 | 0.0 | 0.00 | 0.00 | 0.00 | 37 | 1004.3 | |
| 20260504013516 | 67 | 0.0 | 0.0 | 0.00 | 0.00 | 0.00 | 35 | 1004.3 | |
| 20260504012516 | 68 | 0.0 | 0.0 | 0.00 | 0.00 | 0.00 | 33 | 1004.3 | |
| 20260504011517 | 69 | 0.0 | 0.0 | 0.00 | 0.00 | 0.00 | 32 | 1004.2 |